Vertical_Velocity
1 1 1 1 0 0 1 0 -2 -2 -1 1 -0 -2 -1 -1 0 1 0 1 -1 -1 -0 0 -2 0 -1 -2 -1 -2 -1 -1 -1 -2 -2 -0 -0 -1 -1 -2 -1 1 -0
2 1 1 0 -0 -0 2 -1 1 1 -2 -2 -0 1 1 -1 -0 -1 -3 0 1 0 -0 1 -1 -0 -0 -1 -2 -1 -1 -1 -1 -1 -1 -1 -2 -1 -1 -2 -1 -1 -2
3 2 1 3 0 1 0 3 -0 -0 -1 -1 -1 -1 -0 -2 -0 0 -1 -1 1 -1 -2 -2 -1 -1 -0 -1 -1 -2 -2 -1 -1 -1 -1 -1 -1 -1 -1 -2 -2 -2 -0
1 1 1 0 -1 -2 1 2 2 2 0 0 -1 -3 0 2 2 1 1 0 -2 -1 -1 -1 -2 -2 -2 -2 -1 -1 -1 -2 -2 -2 -2 -1 -1 -1 -2 -2 -2 -2 -2
4 1 2 2 0 -1 2 2 2 1 -1 1 0 0 0 -2 0 -0 1 -1 -1 0 -0 1 1 1 0 -1 0 1 1 0 -0 -0 -1 -1 -2 -2 -1 -1 -1 -2 -2
1 -1 -2 1 2 1 0 -0 -0 -0 2 1 2 1 1 -1 0 -1 -1 1 1 -0 -0 -1 -1 -1 1 0 -2 -2 -1 -1 -2 -1 -0 -1 -1 -0 -1 -1 -2 -2 -2
-0 -1 -1 1 -1 -2 1 2 2 1 0 0 0 0 1 -1 1 -0 -1 -1 -2 0 1 -1 0 -1 -1 -0 1 -1 -1 -2 -0 -0 -0 -0 -2 -2 -2 -2 -2 -2 -2
2 -1 1 -2 -1 1 0 1 1 -0 -1 1 -1 2 0 1 2 1 -0 -1 -1 -2 -2 -0 -1 -1 2 -0 -2 -0 -1 -1 -1 -1 -1 -2 -1 -1 -1 -1 -2 -1 -0
2 1 4 1 -0 -1 -3 -3 -4 -2 -1 -0 2 -1 -2 -2 2 -0 -0 0 0 0 -1 -2 -1 0 -1 1 -1 -2 1 -0 -0 -1 -1 -1 -1 -1 -2 -1 -1 -3 -2
2 0 2 1 4 1 -4 -5 -4 -1 1 -4 3 1 -0 0 -3 -2 0 -0 1 1 0 0 1 -0 0 -2 -0 -2 -3 0 -1 -2 -2 -1 -1 -2 -2 -1 -1 -3 -0
4 6 1 1 0 0 3 1 1 -7 -2 0 -3 -1 -2 1 1 2 -2 -3 -2 -1 -1 -0 0 -1 -0 -2 -1 -0 -2 1 0 -1 -2 -2 -1 -1 -2 -2 -1 -1 -2
2 6 5 5 5 4 -2 2 2 8 1 3 3 5 0 3 -4 -2 1 0 2 -2 -0 -1 0 0 0 -1 0 -2 -2 -2 -2 -1 -1 -0 0 -0 -3 -3 -1 -2 -2
-1 -6 -0 -1 -2 2 2 3 1 4 5 2 6 2 5 -2 1 6 7 1 1 0 -1 -1 1 -0 1 1 1 -2 -0 -3 -4 -1 -2 -1 -1 -2 1 -5 -3 0 -0
-1 17 11 4 2 4 4 5 3 6 3 2 4 5 5 -9 -9 0 -5 2 -1 -1 1 -2 -1 -2 0 1 -0 -3 -3 -3 -1 -3 -1 -1 -3 -1 -2 1 -4 -2 -2
4 3 5 6 7 6 6 5 1 3 3 2 2 3 4 -1 5 -0 -5 -2 -1 -0 -1 -3 -1 1 -1 1 2 -1 -3 -1 -1 -4 -4 -2 -3 -5 -1 -1 -3 -4 -3
2 2 5 4 1 6 7 10 3 5 2 4 1 1 7 13 -1 7 5 -7 6 1 0 1 -3 1 0 -1 3 -2 -2 -1 2 -0 -1 2 1 -2 -3 -0 -2 -4 -3
2 1 3 2 2 5 5 2 -3 15 5 3 8 4 5 -5 14 -7 11 -3 -2 -6 3 0 4 -0 1 3 2 1 -1 -3 -2 -1 -1 0 0 -3 -4 -3 -1 -3 -2
-2 -1 -0 -0 0 2 7 2 6 3 11 5 5 2 8 -2 5 -8 3 9 -5 1 -1 -3 -1 3 -1 1 0 -3 -0 -0 -5 -3 -2 -1 -1 -3 -3 -3 -3 -0 1
3 0 -1 1 2 -0 -1 3 5 8 22 9 7 -5 -3 16 0 1 -7 7 -16 -6 -5 2 -1 0 -3 -0 -4 -0 -3 -3 -3 0 -1 -1 -4 -3 -2 -3 1 1 -1
0 3 -1 -1 -1 1 -0 1 3 1 -1 4 1 5 -5 -10 4 1 -2 -1 -3 -8 0 5 -4 -3 -2 -2 1 -1 -5 -6 -6 -3 -1 0 0 -4 -2 -2 0 -2 -2
-1 2 4 2 4 1 4 5 4 4 -5 -3 -8 2 -1 -1 -6 1 -0 -4 -2 4 -1 -2 -1 -3 -2 1 1 -1 -2 -2 -3 -6 -1 -3 -4 -5 0 1 -1 -0 -0
4 1 2 5 5 6 -3 4 7 3 0 -1 -7 -1 5 -0 8 2 -3 1 -8 -3 -2 1 -0 -1 -1 2 -0 -1 -3 -5 -9 -8 -1 -0 -5 -4 1 -4 -2 -3 -1
5 1 2 4 5 10 8 -4 0 3 4 0 3 -1 4 3 -1 1 1 -2 -0 1 3 4 1 -1 0 -1 2 -1 -0 4 1 -2 1 -4 -5 -9 1 -4 -0 -2 -2
0 4 3 2 3 2 5 5 1 -1 1 1 -2 -4 0 3 3 0 -1 -1 -5 -5 -0 2 2 -2 -1 -2 1 1 -4 -5 -5 -8 4 -7 -3 -2 -6 -4 -1 -2 -0
-1 1 3 2 2 -1 -1 6 5 2 -11 0 -3 6 -10 2 -2 0 -1 -1 -9 -5 -1 1 1 0 2 1 2 1 -2 0 -2 -9 4 -1 -7 0 -6 -5 -4 -0 -1
3 -2 1 3 1 1 4 2 -12 5 7 -3 -7 -8 -2 1 2 -2 -1 -5 -2 3 -0 -1 3 2 1 -0 1 1 0 -2 4 -11 1 -3 -2 9 -18 -6 -1 -3 -1
Height
1553 1554 1555 1557 1558 1560 1561 1562 1563 1563 1565 1564 1564 1563 1563 1563 1562 1562 1563 1563 1562 1562 1562 1561 1562 1562 1561 1561 1561 1561 1561 1560 1560 1559 1558 1557 1556 1556 1555 1555 1555 1554 1553
1550 1551 1553 1554 1556 1557 1558 1559 1560 1560 1561 1562 1562 1561 1561 1560 1560 1560 1561 1562 1562 1561 1561 1561 1561 1561 1560 1559 1559 1560 1559 1559 1559 1557 1556 1556 1555 1554 1553 1552 1552 1551 1551
1547 1548 1550 1551 1553 1555 1556 1556 1557 1558 1558 1559 1559 1559 1558 1558 1559 1558 1559 1560 1560 1559 1559 1560 1559 1560 1559 1559 1558 1558 1557 1557 1556 1555 1554 1553 1552 1551 1550 1550 1549 1549 1548
1543 1544 1545 1547 1549 1551 1553 1554 1554 1554 1555 1555 1555 1556 1557 1557 1556 1557 1557 1557 1558 1558 1558 1558 1558 1558 1558 1557 1557 1556 1555 1554 1553 1552 1552 1550 1549 1548 1548 1547 1546 1546 1545
1537 1539 1540 1543 1545 1547 1548 1550 1551 1551 1552 1552 1552 1552 1552 1554 1554 1555 1555 1555 1556 1556 1556 1556 1557 1556 1555 1555 1555 1555 1553 1552 1551 1549 1548 1547 1546 1545 1544 1544 1543 1543 1542
1531 1532 1534 1537 1539 1541 1543 1545 1547 1548 1549 1549 1550 1550 1550 1550 1551 1551 1553 1554 1553 1554 1554 1554 1554 1554 1554 1553 1553 1552 1551 1549 1548 1547 1546 1544 1543 1542 1542 1541 1541 1540 1540
1524 1526 1527 1530 1533 1535 1539 1541 1542 1543 1545 1545 1546 1547 1546 1546 1547 1547 1548 1550 1551 1551 1551 1551 1551 1551 1551 1550 1549 1548 1547 1546 1545 1544 1543 1542 1540 1539 1539 1538 1538 1537 1537
1516 1518 1520 1523 1526 1530 1532 1534 1537 1539 1540 1541 1541 1544 1544 1545 1543 1543 1543 1545 1546 1547 1548 1548 1547 1547 1546 1545 1545 1544 1542 1541 1541 1540 1539 1537 1536 1536 1535 1534 1534 1533 1532
1508 1512 1512 1515 1519 1523 1526 1529 1532 1534 1534 1536 1537 1539 1539 1538 1538 1539 1539 1540 1541 1542 1542 1543 1543 1542 1542 1541 1539 1539 1537 1537 1536 1535 1534 1532 1531 1530 1529 1529 1528 1527 1527
1500 1504 1506 1508 1513 1515 1518 1521 1525 1527 1528 1529 1532 1532 1533 1533 1534 1535 1535 1535 1536 1536 1537 1537 1537 1537 1536 1536 1534 1533 1532 1531 1530 1529 1528 1527 1525 1524 1524 1523 1522 1521 1520
1492 1495 1498 1500 1504 1507 1511 1513 1515 1517 1520 1522 1523 1525 1527 1529 1529 1529 1528 1529 1530 1531 1532 1532 1532 1532 1531 1530 1529 1527 1526 1526 1524 1523 1522 1520 1518 1517 1517 1516 1514 1513 1512
1482 1486 1489 1491 1495 1499 1501 1504 1508 1510 1512 1515 1516 1517 1519 1520 1521 1524 1524 1524 1525 1526 1527 1527 1527 1526 1525 1524 1523 1521 1520 1520 1518 1517 1515 1513 1510 1509 1509 1508 1506 1504 1502
1472 1475 1479 1483 1485 1489 1492 1496 1499 1501 1504 1507 1510 1511 1513 1515 1518 1519 1520 1520 1521 1521 1521 1522 1522 1521 1520 1519 1517 1515 1514 1513 1511 1509 1507 1505 1502 1500 1498 1496 1496 1495 1494
1466 1469 1471 1473 1477 1480 1484 1487 1491 1495 1498 1501 1503 1506 1508 1509 1509 1514 1516 1517 1518 1517 1516 1515 1516 1516 1515 1513 1510 1509 1507 1506 1503 1501 1499 1496 1494 1492 1489 1486 1486 1486 1485
1458 1460 1463 1465 1468 1471 1474 1478 1481 1485 1490 1494 1497 1499 1501 1503 1506 1504 1506 1512 1511 1511 1511 1510 1511 1510 1509 1507 1505 1501 1499 1497 1493 1491 1489 1486 1483 1483 1481 1479 1478 1478 1477
1451 1452 1454 1457 1459 1462 1466 1469 1471 1475 1482 1486 1489 1492 1494 1497 1496 1499 1499 1507 1505 1507 1507 1505 1505 1506 1503 1500 1498 1494 1491 1489 1486 1483 1480 1478 1474 1473 1473 1472 1470 1469 1468
1445 1446 1448 1449 1452 1454 1457 1461 1464 1461 1473 1479 1482 1484 1487 1491 1492 1494 1496 1494 1498 1502 1504 1503 1499 1500 1499 1495 1492 1488 1485 1482 1479 1477 1473 1470 1466 1465 1464 1465 1463 1460 1459
1440 1440 1442 1444 1446 1449 1453 1456 1460 1463 1466 1471 1476 1480 1481 1482 1489 1485 1492 1486 1492 1497 1497 1497 1495 1492 1490 1489 1485 1482 1480 1476 1472 1469 1465 1462 1459 1457 1456 1455 1454 1452 1450
1434 1433 1436 1439 1441 1444 1448 1452 1456 1461 1466 1469 1472 1478 1474 1481 1480 1483 1482 1486 1484 1490 1491 1488 1487 1487 1484 1482 1479 1475 1472 1469 1465 1462 1458 1455 1452 1450 1450 1448 1446 1443 1440
1429 1430 1431 1433 1436 1438 1442 1447 1453 1459 1464 1467 1471 1472 1475 1478 1482 1477 1479 1481 1480 1482 1485 1481 1478 1479 1477 1477 1472 1468 1463 1462 1457 1454 1452 1448 1445 1444 1443 1440 1437 1433 1430
1426 1428 1430 1431 1433 1436 1442 1446 1450 1454 1460 1463 1467 1474 1471 1467 1477 1474 1475 1474 1477 1477 1475 1474 1473 1473 1472 1470 1467 1463 1457 1454 1450 1448 1444 1441 1437 1436 1435 1432 1428 1424 1421
1424 1426 1429 1431 1433 1435 1440 1446 1450 1454 1459 1462 1463 1469 1470 1471 1472 1468 1468 1469 1470 1472 1472 1471 1468 1466 1466 1463 1459 1455 1452 1450 1444 1441 1437 1433 1431 1428 1426 1423 1419 1416 1412
1424 1427 1430 1433 1435 1439 1442 1447 1453 1456 1459 1460 1463 1466 1468 1465 1465 1464 1464 1466 1465 1468 1468 1466 1462 1462 1459 1456 1453 1448 1447 1444 1439 1435 1431 1422 1424 1419 1417 1413 1409 1406 1403
1427 1429 1432 1436 1439 1442 1446 1450 1452 1454 1456 1458 1460 1462 1463 1463 1461 1460 1460 1460 1459 1462 1463 1460 1456 1454 1452 1449 1446 1443 1440 1436 1432 1429 1427 1416 1416 1410 1406 1402 1398 1396 1394
1431 1434 1436 1442 1442 1443 1448 1451 1452 1452 1455 1457 1459 1460 1461 1461 1458 1456 1454 1453 1455 1458 1456 1453 1449 1447 1445 1443 1440 1437 1434 1431 1425 1422 1420 1413 1407 1399 1395 1390 1387 1385 1382
1436 1440 1438 1444 1446 1447 1449 1450 1451 1453 1455 1456 1458 1457 1457 1456 1454 1452 1450 1451 1453 1452 1448 1444 1443 1440 1438 1436 1434 1432 1429 1424 1420 1414 1411 1407 1400 1395 1385 1380 1378 1375 1372